Location: Unspecified
(0.0000°N, 1.0000°E)
Time: 05:34:30
(UTC+02:00)

Daily predictions for brighter satellites

Satellite Brightness Start Highest point End
(mag) Time Altitude Azimuth Time Altitude Azimuth Time Altitude Azimuth
SL-16 R/B 4.5 04:42:12 22° NNE 04:42:12 22° NNE 04:44:43 10° NNE
ATLAS 2AS CENTAUR R/B 3.7 04:57:36 42° ENE 04:57:36 42° ENE 05:02:41 10° NE
ADEOS II 4.2 05:14:16 10° NE 05:18:03 20° ESE 05:19:21 19° ESE
Cosmos 2297 Rocket 4.1 05:47:15 18° NNW 05:47:15 18° NNW 05:48:52 10° NNW
Okean-O 4.0 05:47:58 10° N 05:50:23 32° N 05:50:23 32° N
Okean 2 Rocket 4.1 05:58:31 36° N 05:58:31 36° N 06:01:12 10° N
Meteor 1-10 Rocket 4.3 05:51:21 10° N 05:57:12 83° E 06:00:57 24° S
ISS -0.9 05:59:24 22° E 05:59:24 22° E 06:01:05 10° ESE
Cosmos 2366 rocket 3.8 05:58:47 66° WSW 05:59:21 70° W 06:05:29 10° N
NOSS 2-3 (C) 3.7 06:00:24 82° ESE 06:00:24 82° ESE 06:05:04 10° NNE
Delta 198 3.7 06:01:55 80° SSE 06:01:55 80° SSE 06:07:22 10° ESE
Ariane H10 3.2 06:03:50 41° NNE 06:03:50 41° NNE 06:07:46 10° ENE
Meteor 2-19 Rocket 4.4 06:07:29 22° S 06:11:31 82° E 06:17:35 10° N
Atlas Centaur 2 4.2 06:14:22 17° S 06:14:22 17° S 06:16:31 10° SSE
Meteor 1-14 Rocket 4.4 06:08:24 23° S 06:12:07 76° E 06:17:57 10° N
GPS 2-17 Rocket1 3.8 06:14:20 41° S 06:14:20 41° S 06:18:19 10° SE
MOZ.5/SAFIR/RUBIN 5/SL-8 3.7 06:10:54 23° SSE 06:13:47 88° ENE 06:18:27 10° N
Cosmos 1606 3.1 06:11:08 10° N 06:14:52 61° E 06:16:35 29° SSE
GPS 2-18 Rocket1 3.1 06:17:03 74° SE 06:17:03 74° SE 06:20:43 10° ESE
Cosmos 2333 Rocket 3.9 06:12:06 10° NNE 06:17:12 33° ENE 06:22:19 10° SE
NOSS 2-3 (D) 3.8 06:19:42 54° W 06:20:16 59° WNW 06:24:53 10° NNE
Okean 3 4.3 06:17:15 10° N 06:21:22 52° E 06:25:32 10° SSE
ARIANE 5 DEB (SYLDA) 4.3 06:13:29 28° WSW 06:22:11 63° S 06:26:48 10° ESE
Cosmos 1238 Rocket 3.4 06:17:24 10° NNW 06:22:46 55° W 06:23:48 45° SW
Cosmos 2227 4.1 06:21:13 39° SW 06:23:19 69° WNW 06:28:52 10° N
Cosmos 1378 Rocket 3.4 06:20:29 10° N 06:24:54 88° W 06:29:17 10° S
COSMOS 2428 2.8 06:22:09 10° NNW 06:27:34 48° WSW 06:33:02 10° S
Cosmos 1184 Rocket 3.2 06:27:26 31° SSE 06:28:53 65° E 06:32:16 10° NNE
Radarsat Rocket 4.4 06:24:39 10° NNE 06:31:10 84° ESE 06:38:37 10° SSW
Meteor 1-31 Rocket 2.6 06:29:42 10° N 06:33:34 74° W 06:35:19 31° SSW
GPS 2-14 Rocket1 3.9 06:31:11 16° NW 06:33:52 38° NNE 06:37:39 10° E
Cosmos 1975 Rocket 3.2 06:30:02 10° N 06:34:27 73° E 06:38:52 10° S
XTE 3.5 06:36:07 42° NW 06:36:24 44° NNW 06:39:21 10° NE
Ariane H10 1.3 06:36:32 43° WSW 06:37:24 73° S 06:40:06 10° E
Cosmos 2237 Rocket 3.2 06:32:16 10° N 06:37:42 48° ENE 06:43:09 10° SSE
SWAS 4.3 06:33:37 10° NNW 06:37:53 69° WSW 06:42:11 10° S
Milstar 3 4.3 06:23:41 10° WNW 06:41:27 51° SW 06:50:44 10° SE
Ariane 44P Rocket 3.8 06:31:59 21° W 06:41:50 62° S 06:45:37 10° ESE
ATLAS CENTAUR R/B 1.6 06:38:35 10° NW 06:42:14 36° WSW 06:45:41 10° S
Ariane H10 4.3 06:40:37 19° W 06:45:01 69° N 07:17:12 10° E
ATLAS 2AS CENTAUR R/B 4.3 06:45:04 15° WNW 06:46:30 15° WNW 06:50:30 10° NNW
Cosmos 2219 Rocket 2.1 06:43:06 10° NNW 06:48:39 73° WSW 06:54:14 10° S
ARGOS Delta rocket 4.5 06:43:58 10° N 06:48:47 42° W 06:53:02 14° SSW
Cosmos 2151 Rocket 4.0 06:46:55 22° SW 06:49:12 39° W 06:53:18 10° NNW
Cosmos 1300 Rocket 4.0 06:48:41 10° S 06:53:02 65° E 06:57:18 10° NNE
Delta 2 Rocket 4.2 06:51:13 19° SW 06:55:54 76° SSE 07:03:19 10° ENE
GPS 2-12 Rocket1 3.5 06:53:03 20° W 06:55:55 50° NNW 07:00:15 10° NE
SL-24 R/B - RUBIN 2 4.3 06:49:44 10° NNW 06:56:06 71° WSW 07:01:48 10° SSE
Cosmos 921 Rocket 4.1 06:55:49 21° WSW 06:57:25 26° W 07:01:00 10° NNW
ADEOS II 3.1 06:53:15 10° NNW 06:57:30 25° WNW 07:00:18 17° WSW
Ariane Rocket 3.4 06:57:07 10° N 07:01:54 42° WNW 07:06:42 10° SSW
ARIANE 44L R/B 3.4 07:01:06 17° W 07:03:49 88° N 07:21:06 10° E
CSL-04 Rocket 3.6 06:59:57 10° N 07:05:15 68° WNW 07:10:40 10° SSW
Cosmos 44 Rocket 3.3 07:00:41 10° SSW 07:05:32 72° WNW 07:10:32 10° NNE
CSL-04 Debris 4.1 07:00:15 10° NNE 07:05:39 86° W 07:11:03 10° SSW
SL-16 R/B 4.0 07:04:18 10° N 07:09:27 36° ENE 07:14:36 10° SE
Ariane H10 3.9 07:08:41 14° WSW 07:10:52 30° S 07:13:17 10° ESE
IRS-1A Rocket 4.2 07:09:04 10° N 07:14:33 76° WNW 07:20:04 10° SSW
CZ-3 R/B 4.2 07:13:00 10° SW 07:20:21 14° SSW 07:24:38 10° SSE
ARIANE 5 DEB (SYLDA) 4.2 07:17:40 10° WNW 07:20:31 44° NNE 07:28:38 10° E
Meteor 2-21 Rocket 4.5 07:16:38 10° SSW 07:22:42 66° W 07:28:41 10° N
Ariane H10+ 3.0 07:14:29 10° W 07:24:48 69° S 07:27:51 10° ESE
Meteor 1-11 Rocket 3.9 07:23:35 10° S 07:29:08 82° E 07:34:44 10° N
ADEOS Rocket 4.1 07:27:11 10° NNW 07:30:59 19° WNW 07:34:48 10° WSW
Cosmos 1605 Rocket 4.0 07:25:38 10° S 07:31:47 76° W 07:37:50 10° N
